Regional Weather Roundup
Issued by NWS Kansas City/Pleasant Hill, MO

Home | Current Version | Previous Version | Graphics & Text | Print | Product List | Glossary Off
Versions: 1 2 3 4 5 6 7 8 9 10 11 12 13 14 15 16 17 18 19 20 21 22 23 24 25 26 27 28 29 30 31 32 33 34 35 36 37 38 39 40 41 42 43 44 45 46 47 48 49 50

000
ASUS43 KEAX 220904
RWREAX

WEATHER ROUNDUP FOR EASTERN KANSAS AND NORTHWEST MISSOURI
NATIONAL WEATHER SERVICE KANSAS CITY/PLEASANT HILL MO
300 AM CST MON DEC 22 2014

KSZ040-057-103>105-MOZ028-029-037-043-221000-
...KANSAS CITY METROPOLITAN AREA...

CITY           SKY/WX    TMP DP  RH WIND       PRES   REMARKS
K.C. INTL      CLOUDY    42  38  85 S12       29.67F
K.C. DOWNTOWN  LGT RAIN  44  37  76 S8        29.68F
LEES SUMMIT    CLOUDY    42  37  82 SE6       29.69F
OLATHE - IXD   LGT RAIN  41  40  96 SE9       29.67F FOG
OLATHE - OJC   CLOUDY    42  40  92 S12       29.67F FOG
LAWRENCE       CLOUDY    42  40  92 SE8       29.66F FOG

$$

MOZ001>008-011>017-020>025-030>033-038>040-044>046-053-054-221000-
...NORTHERN AND CENTRAL MISSOURI...

CITY           SKY/WX    TMP DP  RH WIND       PRES   REMARKS
ST. JOSEPH     CLOUDY    43  39  86 S10       29.67F
MOSBY          CLOUDY    43  37  81 SE7       29.69F
WARRENSBURG    CLOUDY    41  36  81 SE8       29.70F
WHITEMAN AFB   MOCLDY    43  36  75 SE10      29.71F
CLINTON        CLOUDY    45  39  81 S13       29.72F
SEDALIA        MOCLDY    43  36  76 SE7       29.73F
WARSAW         NOT AVBL
CHILLICOTHE      N/A     42  37  82 SE9       29.73F
MOBERLY        CLOUDY    41  32  70 SE10      29.78  WCI  35
KIRKSVILLE     CLOUDY    39  36  89 SE13      29.77F WCI  31

$$

MOZ041-047>049-056>058-063>065-088>090-097-221000-
...EASTERN AND SOUTHERN MISSOURI...

CITY           SKY/WX    TMP DP  RH WIND       PRES   REMARKS
ST. LOUIS INTL CLOUDY    43  31  62 SE12      29.87F
SPIRIT OF STL  CLOUDY    42  31  64 E7        29.85F
COLUMBIA       CLOUDY    41  35  79 SE8       29.78F
JEFFERSON CITY LGT RAIN  41  35  79 E7        29.79F
MEXICO         CLOUDY    41  37  87 SE8       29.80F
HANNIBAL       CLOUDY    43  32  65 SE8       29.82F
ROLLA          CLOUDY    42  32  67 SE12      29.77F
LEBANON        CLOUDY    43  34  70 SE8       29.74F
OSAGE BEACH    CLOUDY    43  34  70 SE6       29.75F
SPRINGFIELD    CLOUDY    43  36  76 SE15      29.70F
NEVADA         CLOUDY    41  39  93 SE9       29.70F FOG
JOPLIN         CLOUDY    44  41  89 SE9       29.68F
WEST PLAINS    CLOUDY    42  34  73 SE9       29.78F

$$

IAZ060-094-KSZ022-034>040-054-083-096-NEZ052-066-093-221000-
...KANSAS...SOUTHEAST NEBRASKA AND IOWA...

CITY           SKY/WX    TMP DP  RH WIND       PRES   REMARKS
TOPEKA         CLOUDY    45  42  89 SE10      29.65F
MANHATTAN      LGT RAIN  44  42  93 S10       29.60F
EMPORIA        CLOUDY    42  42 100 SE12      29.61F FOG
CHANUTE        CLOUDY    44  43  96 SE10      29.65F FOG
WICHITA        DRIZZLE   45  43  93 S12       29.58F FOG
OMAHA          LGT RAIN  43  42  97 S18       29.60F FOG     WCI  35
LINCOLN        LGT RAIN  43  42  97 S10       29.58S FOG
FALLS CITY     CLOUDY    43  40  89 S12       29.63F
LAMONI         CLOUDY    39  37  92 SE10      29.69F WCI  32
DES MOINES     CLOUDY    41  38  89 S14       29.70F WCI  33

$$



USA.gov is the U.S. government's official web portal to all federal, state and local government web resources and services.